Terminal Aerodrome Forecast
Issued by NWS

Home | Current Version | Previous Version | Text Only | Print | Product List | Glossary On
Versions: 1 2 3 4 5 6 7 8 9 10 11 12 13 14 15 16 17 18 19 20 21 22 23 24 25 26 27 28 29 30 31 32 33 34 35 36 37 38 39 40 41 42 43 44 45 46 47 48
000
FTUS41 KOKX 221432 AAQ
TAFSWF
TAF AMD
KSWF 221432Z 2215/2318 VRB03KT P6SM SCT015 SCT025
      TEMPO 2217/2218 BKN025
     FM221800 VRB03KT P6SM SCT030 SCT040
     FM230200 VRB03KT P6SM BKN020
     AMD NOT SKED=

USA.gov is the U.S. government's official web portal to all federal, state and local government web resources and services.